Location: Recife
(8.0585°S, 34.8848°W)
Time: 11:32:43
(UTC-03:00)

Vanguard 2 - Pass Details

Date: 14 April 2026
Orbit: 554 x 2894 km, 32.9° (Epoch: 8 May)

Event Time Altitude Azimuth Distance (km) Brightness Sun altitude
Rises 08:03:26 0° 252° (WSW) 4,618 11.0 38.0°
Reaches altitude 10° 08:07:38 10° 263° (W) 3,200 10.3 39.0°
Maximum altitude 08:13:36 26° 316° (NW) 1,720 9.4 40.4°
Drops below altitude 10° 08:17:51 10° 13° (NNE) 2,211 10.4 41.4°
Sets 08:20:13 0° 27° (NNE) 2,950 11.1 41.9°
